Flag for U.S.A. Weather past 2 weeks in Baltimore, Maryland, U.S.A.

Now
36 °F

Sunny.


Feels Like: 28 °F
Forecast: 20 / 34 °F
Wind: 10 mph from Northwest

Location: Baltimore-Washington International Airport

Current Time: Jan 28, 2015 at 2:23:50 PM

Latest Report: Jan 28, 2015 at 1:54 PM


Visibility: 10 mi

Pressure: 30.18 "Hg

Humidity: 26%

Dew point: 4 °F

Location of BaltimoreLocation

Historic Weather in Baltimore — Graph

°F

Baltimore temperature yesterday

Maximum temperature yesterday: 36 °F (at 2:54 PM)
Minimum temperature yesterday: 27 °F (at 12:56 AM)
Average temperature yesterday: 30 °F

Past Weeks' High & Low Weather Summary

 TemperatureHumidityPressure
High49 °F (Jan 25, 12:54 PM)100% (Jan 18, 10:54 AM)30.58 "Hg (Jan 18, 10:54 AM)
Low20 °F (Jan 28, 4:54 AM)28% (Jan 28, 12:54 PM)29.43 "Hg (Jan 24, 1:54 PM)
Average33 °F70%30.03 "Hg
* Reported Jan 13 12:54 PM — Jan 28 12:54 PM, Baltimore, Weather by CustomWeather, © 2014

Note: Actual official high and low records may vary slightly from our data, if they occured in-between our weather recording intervals... More about our weather records

Advertising

Baltimore weather history for previous 24 hours

 ConditionsComfort  
Time TempWeatherWind HumidityBarometerVisibility
12:54 PM
Jan 28
35 °FSunny.13 mph28%30.19 "Hg10 mi
11:54 AM32 °FSunny.14 mph32%30.20 "Hg10 mi
10:54 AM30 °FSunny.9 mph33%30.21 "Hg10 mi
9:54 AM27 °FSunny.14 mph35%30.20 "Hg10 mi
8:54 AM24 °FSunny.13 mph42%30.19 "Hg10 mi
7:54 AM21 °FPassing clouds.7 mph50%30.16 "Hg10 mi
6:54 AM20 °FPassing clouds.8 mph52%30.13 "Hg10 mi
5:54 AM20 °FClear.6 mph52%30.10 "Hg10 mi
4:54 AM20 °FPassing clouds.10 mph55%30.08 "Hg10 mi
3:54 AM22 °FPassing clouds.8 mph55%30.06 "Hg10 mi
2:54 AM23 °FClear.14 mph53%30.04 "Hg10 mi
1:54 AM25 °FPassing clouds.10 mph48%30.01 "Hg10 mi
12:54 AM26 °FPassing clouds.13 mph50%29.98 "Hg10 mi
11:54 PM
Jan 27
27 °FPassing clouds.10 mph53%29.96 "Hg10 mi
10:54 PM27 °FPassing clouds.15 mph55%29.93 "Hg10 mi
9:54 PM27 °FPassing clouds.13 mph61%29.90 "Hg10 mi
8:54 PM29 °FPassing clouds.12 mph58%29.88 "Hg10 mi
7:54 PM29 °FPassing clouds.15 mph64%29.86 "Hg10 mi
6:54 PM30 °FPassing clouds.14 mph66%29.85 "Hg10 mi
5:54 PM31 °FPassing clouds.12 mph67%29.82 "Hg10 mi
4:54 PM32 °FScattered clouds.15 mph64%29.80 "Hg10 mi
3:54 PM35 °FScattered clouds.18 mph54%29.78 "Hg10 mi
2:54 PM36 °FScattered clouds.16 mph57%29.77 "Hg10 mi
Weather by CustomWeather, © 2014

See weather overviewHow to use our weather pages